User: anonymous   Login
Location: Unspecified
(0.0000°N, 0.0000°E)
Time: 04:06:20
(UTC+00:00)
Language:

STRELA 3 - Orbit

View from above orbital plane
View from above orbital plane
View from above satellite
View from above satellite

Ground track
Ground track

The orbit data is extracted from the following two-line orbital elements,

1 37153U 10043B   19054.18663583  .00000012  00000-0  17326-4 0  9992
2 37153  82.4582 302.1416 0007937 114.5734 245.6180 12.40731408383198
Epoch (UTC): 23 February 2019 04:28:45
Eccentricity: 0.0007937
inclination: 82.4582°
perigee height: 1497 km
apogee height: 1510 km
right ascension of ascending node: 302.1416°
argument of perigee: 114.5734°
revolutions per day: 12.40731408
mean anomaly at epoch: 245.6180°
orbit number at epoch: 38319

The dashed part of the orbit path shows where the satellite is in the earth's shadow,  

DLR